Temp
6 6 6 6 6 6 5 5 5 5 5 5 5 4 4 4 4 4 4 4 3 3 3 3 3 2 3 3 3 3 3 3 3 3 3 3 3 3 3 3 3 3 3 3 3 3 3 3 3 3 3 3 3 3 3 3 2 2 2 2 2 2 1 1 1 1 1 1 0 0 -0 -0 -0 -1
6 6 6 6 6 6 5 5 5 5 5 5 5 5 5 4 4 4 4 4 4 4 4 3 3 3 3 3 3 3 2 2 3 3 2 2 2 2 2 2 3 3 3 3 3 3 3 3 3 3 3 2 2 2 2 2 2 2 2 2 2 1 1 1 0 0 0 -0 -0 -0 -1 -1 -1 -1
6 6 6 6 6 6 5 5 5 5 5 5 5 5 5 4 4 4 4 4 4 4 4 3 3 3 3 3 3 3 2 2 2 2 2 2 2 2 2 2 2 2 2 2 2 2 2 2 2 2 2 2 2 2 2 2 2 2 2 1 1 1 0 0 -0 -0 -0 -1 -1 -1 -1 -1 -2 -2
6 6 6 5 5 6 6 5 5 5 5 5 5 5 5 4 4 4 4 4 4 4 4 3 3 3 3 3 3 2 2 2 2 2 2 2 2 2 2 2 2 2 2 2 2 2 2 2 2 2 2 2 2 2 2 2 2 1 1 1 1 0 0 -0 -0 -1 -1 -1 -1 -2 -2 -2 -3 -3
6 6 6 5 5 6 6 6 6 6 5 5 5 5 5 4 4 4 4 4 4 4 3 3 3 3 3 3 3 2 1 1 1 1 1 1 1 2 2 2 2 2 1 1 1 1 1 2 2 2 2 2 2 2 2 1 1 1 1 0 0 -0 -0 -1 -1 -1 -1 -2 -2 -2 -3 -3 -4 -4
6 6 6 6 6 6 6 6 6 6 6 5 5 5 5 4 4 4 4 4 4 3 3 3 3 3 3 3 2 2 1 1 1 1 1 1 1 1 1 1 2 1 1 1 1 1 1 1 1 1 1 1 1 1 1 1 1 0 0 -0 -0 -1 -1 -2 -2 -2 -2 -2 -3 -3 -3 -4 -4 -5
6 6 6 6 6 6 6 7 6 6 6 5 5 5 5 5 4 4 4 4 3 4 4 4 3 3 3 2 2 2 2 1 1 1 1 1 1 1 1 1 1 0 0 0 1 1 1 1 1 1 1 1 1 1 0 0 -0 -0 -1 -1 -1 -2 -2 -2 -2 -3 -3 -3 -3 -4 -4 -5 -5 -5
6 6 6 6 6 6 7 6 6 6 6 6 5 5 5 5 4 4 4 4 4 4 4 4 4 3 3 3 3 2 2 2 1 1 1 0 0 0 0 0 -0 0 0 0 0 0 0 0 1 1 0 0 0 -0 -0 -1 -1 -1 -1 -2 -2 -2 -2 -3 -3 -3 -3 -4 -4 -4 -5 -5 -6 -6
6 6 6 6 7 7 7 6 6 6 6 6 6 5 5 5 5 4 4 4 4 4 4 3 3 3 3 3 3 2 2 2 1 1 1 1 0 0 0 0 0 0 0 0 0 0 0 0 0 0 -0 -0 -0 -1 -1 -1 -2 -2 -2 -2 -2 -3 -3 -3 -3 -4 -4 -4 -5 -5 -5 -6 -6 -7
6 6 7 7 7 7 6 6 6 6 6 6 6 5 5 5 5 5 4 4 4 4 3 3 3 3 3 3 3 2 2 2 1 1 1 1 0 0 0 0 0 0 0 -0 -0 -0 -0 -0 -0 -0 -1 -1 -1 -1 -1 -2 -2 -2 -2 -2 -3 -3 -3 -3 -4 -4 -4 -5 -5 -5 -6 -6 -7 -7
6 7 7 7 7 6 6 6 6 6 6 6 6 6 5 5 5 5 5 5 4 4 4 4 4 3 3 3 3 2 2 1 1 1 1 0 0 -0 0 0 0 -0 -0 -1 -1 -1 -1 -1 -1 -1 -1 -1 -1 -2 -2 -2 -2 -2 -3 -3 -3 -3 -4 -4 -4 -5 -5 -5 -6 -6 -7 -7 -7 -8
7 7 7 7 6 6 6 6 6 6 6 6 6 6 6 6 5 5 5 5 5 5 4 4 4 4 3 3 3 2 1 1 1 1 0 0 0 -0 0 0 -0 -0 -1 -1 -1 -1 -1 -1 -1 -1 -2 -2 -2 -2 -2 -2 -3 -3 -3 -4 -4 -4 -4 -4 -5 -5 -5 -6 -6 -7 -7 -7 -8 -8
7 7 7 6 6 6 6 6 6 6 6 6 6 6 6 6 6 5 5 5 5 5 4 4 4 4 3 3 3 2 1 1 1 1 1 0 0 -0 -0 -0 -1 -1 -1 -1 -1 -1 -1 -2 -2 -2 -2 -2 -2 -2 -2 -3 -3 -3 -4 -4 -4 -4 -4 -5 -5 -5 -6 -6 -7 -7 -7 -8 -8 -9
7 7 7 6 6 6 6 6 6 6 6 6 6 6 6 6 6 5 5 5 5 5 4 4 4 3 3 3 2 2 1 1 1 1 0 0 -0 -0 -0 -1 -1 -1 -1 -1 -1 -1 -2 -2 -2 -2 -2 -2 -3 -3 -3 -3 -3 -4 -4 -4 -4 -4 -5 -5 -6 -6 -6 -7 -7 -7 -8 -8 -8 -9
7 7 7 6 6 6 6 6 6 6 6 6 6 6 6 6 5 5 5 5 5 4 4 4 4 3 3 3 3 2 2 1 1 1 0 0 -0 -0 -1 -1 -1 -1 -1 -1 -1 -2 -2 -2 -2 -2 -2 -2 -3 -3 -4 -4 -4 -4 -5 -5 -5 -5 -5 -6 -6 -6 -7 -7 -7 -8 -8 -8 -9 -9
7 7 6 6 6 6 6 6 6 6 6 6 6 6 6 5 5 5 4 4 4 4 4 4 3 3 3 3 2 2 2 2 1 1 1 0 -0 -0 -0 -0 -0 -1 -1 -1 -2 -2 -2 -2 -2 -2 -2 -3 -3 -4 -4 -4 -4 -5 -5 -5 -5 -6 -6 -6 -6 -7 -7 -7 -8 -8 -8 -9 -9 -9
7 6 6 6 6 6 6 6 6 6 6 6 5 5 5 5 5 4 4 4 3 3 3 3 3 3 2 2 2 2 1 1 1 1 1 0 0 0 0 -0 -0 -1 -1 -1 -2 -2 -2 -2 -2 -2 -2 -3 -3 -4 -4 -5 -5 -5 -5 -6 -6 -6 -6 -6 -7 -7 -8 -8 -8 -8 -9 -9 -9 -9
7 6 6 6 6 6 6 6 6 6 6 5 5 5 5 5 4 4 4 3 3 3 3 3 2 2 2 1 1 1 1 1 1 1 1 0 0 0 0 -0 -1 -1 -2 -2 -2 -3 -2 -2 -2 -2 -3 -3 -4 -4 -5 -5 -5 -5 -6 -6 -6 -6 -7 -7 -7 -8 -8 -8 -8 -9 -9 -9 -9 -9
6 6 6 6 6 6 6 5 5 5 5 5 5 4 4 4 4 3 3 3 3 3 2 2 2 2 1 1 1 1 1 1 1 1 1 0 0 0 -0 -0 -1 -2 -2 -2 -2 -3 -3 -2 -3 -3 -3 -3 -4 -4 -5 -5 -5 -6 -6 -6 -7 -7 -7 -8 -8 -8 -8 -8 -9 -9 -9 -9 -9 -9
6 6 6 6 6 6 5 5 5 5 5 5 4 4 4 3 3 3 3 2 2 2 2 2 2 2 2 1 1 1 1 1 1 1 1 0 0 0 -0 -1 -1 -2 -2 -2 -3 -3 -3 -3 -3 -3 -3 -4 -4 -4 -5 -5 -6 -6 -7 -7 -7 -7 -8 -8 -8 -8 -8 -8 -9 -9 -9 -9 -9 -8
6 6 6 6 6 5 5 5 5 5 5 4 4 4 3 3 3 3 2 2 2 2 2 2 2 2 2 1 1 1 1 1 1 1 1 0 0 0 -0 -1 -2 -2 -2 -2 -3 -3 -3 -3 -4 -4 -4 -4 -5 -5 -5 -6 -6 -7 -7 -7 -8 -8 -8 -8 -8 -8 -8 -8 -9 -9 -9 -8 -8 -8
6 6 6 6 5 5 5 5 4 4 4 4 4 3 3 3 3 2 2 2 2 2 2 2 2 1 1 1 1 1 0 0 0 0 0 0 0 0 -0 -1 -2 -2 -2 -2 -3 -3 -3 -4 -4 -4 -4 -5 -5 -5 -6 -6 -7 -7 -7 -7 -8 -8 -8 -8 -8 -8 -8 -8 -8 -8 -8 -8 -8 -8
6 6 6 5 5 5 5 4 4 4 4 4 3 3 3 3 2 2 2 2 2 2 2 2 1 1 1 1 1 0 0 0 0 -0 -0 -0 -0 -0 -1 -1 -2 -2 -2 -2 -3 -3 -4 -4 -4 -4 -5 -5 -5 -6 -6 -6 -7 -7 -7 -8 -8 -8 -8 -8 -8 -8 -8 -8 -8 -8 -8 -8 -8 -8
5 5 5 5 5 5 4 4 4 4 3 3 3 3 2 2 2 2 2 2 2 2 1 1 1 1 1 1 1 0 0 0 0 0 -0 -0 -0 -1 -1 -1 -2 -2 -2 -3 -3 -4 -4 -4 -5 -5 -5 -5 -6 -6 -6 -7 -7 -7 -8 -8 -8 -8 -8 -8 -8 -8 -8 -8 -8 -8 -8 -8 -8 -9
5 5 5 5 5 4 4 4 3 3 3 3 3 2 2 2 2 2 2 2 1 1 1 1 1 1 0 0 0 1 0 0 0 -0 -0 -0 -1 -1 -1 -1 -2 -2 -2 -3 -3 -4 -4 -4 -5 -5 -5 -6 -6 -6 -7 -7 -7 -8 -8 -8 -8 -8 -8 -8 -8 -8 -8 -8 -8 -8 -8 -8 -9 -9
5 5 5 5 4 4 4 3 3 3 3 3 2 2 2 2 2 2 1 1 1 1 1 1 1 0 0 0 0 0 0 0 -0 -0 -1 -1 -1 -1 -2 -2 -2 -2 -2 -3 -3 -4 -5 -5 -5 -6 -6 -6 -7 -7 -7 -7 -8 -8 -8 -8 -8 -8 -8 -8 -8 -8 -8 -8 -8 -8 -8 -9 -9 -9
5 5 4 4 4 4 3 3 3 3 3 3 2 2 2 2 1 1 1 1 1 1 1 1 1 0 0 0 0 -0 -0 -0 -1 -1 -1 -2 -2 -2 -2 -2 -2 -3 -3 -3 -4 -4 -5 -5 -6 -6 -7 -7 -7 -7 -7 -8 -8 -8 -8 -8 -8 -8 -8 -8 -8 -8 -8 -8 -8 -8 -9 -9 -9 -9
4 4 4 4 4 3 3 3 3 3 3 2 2 2 2 1 1 1 1 1 1 1 0 0 -0 -0 -0 -0 -0 -1 -1 -1 -1 -2 -2 -2 -2 -3 -3 -3 -3 -3 -3 -4 -4 -5 -6 -6 -7 -7 -7 -7 -7 -7 -8 -8 -8 -8 -8 -8 -7 -7 -8 -8 -8 -8 -8 -8 -8 -9 -9 -9 -9 -9
4 4 4 4 3 3 3 3 2 2 2 2 2 2 2 1 1 1 0 0 0 0 -0 -0 -0 -0 -0 -1 -1 -1 -1 -2 -2 -2 -2 -3 -3 -3 -3 -4 -4 -4 -4 -5 -5 -6 -6 -7 -7 -7 -7 -7 -8 -8 -8 -8 -8 -7 -7 -7 -8 -8 -8 -8 -8 -8 -8 -8 -9 -9 -9 -9 -9 -10
4 4 4 3 3 3 2 2 2 2 2 2 2 2 1 1 1 1 0 0 -0 -0 -1 -1 -1 -1 -1 -1 -1 -2 -2 -2 -2 -2 -2 -3 -4 -4 -4 -4 -4 -5 -5 -6 -6 -6 -7 -7 -7 -8 -8 -8 -8 -8 -8 -8 -8 -7 -8 -8 -8 -8 -8 -8 -8 -8 -8 -9 -9 -9 -9 -9 -10 -10
4 4 3 3 2 2 2 2 2 2 2 2 1 1 1 1 0 -0 -0 -0 -0 -0 -0 -1 -1 -1 -1 -1 -1 -2 -2 -2 -2 -2 -3 -3 -4 -4 -4 -5 -5 -5 -6 -6 -7 -7 -7 -8 -8 -8 -8 -8 -8 -8 -8 -8 -8 -8 -8 -8 -8 -8 -8 -8 -8 -8 -8 -9 -9 -9 -9 -10 -10 -10
4 3 3 2 2 1 1 1 1 1 1 1 1 1 1 0 -0 -0 -0 -0 -0 -0 -1 -1 -1 -1 -1 -1 -1 -2 -2 -2 -3 -3 -4 -4 -4 -4 -5 -5 -5 -6 -6 -7 -7 -7 -8 -8 -8 -8 -8 -8 -8 -8 -8 -8 -8 -8 -8 -8 -8 -8 -8 -8 -8 -8 -9 -9 -9 -10 -10 -10 -10 -11
3 3 2 1 1 1 1 1 1 1 1 1 0 0 -0 -0 -0 -0 -0 -0 -0 -1 -1 -1 -1 -1 -2 -2 -2 -2 -2 -3 -3 -4 -4 -4 -5 -5 -5 -5 -6 -6 -7 -7 -7 -8 -8 -8 -8 -8 -8 -8 -8 -8 -8 -8 -8 -8 -8 -8 -8 -8 -8 -8 -8 -9 -9 -9 -10 -10 -10 -11 -11 -11
3 2 2 1 1 1 1 1 1 1 0 0 -0 -0 -0 -0 -0 -0 -0 -1 -1 -1 -1 -1 -1 -2 -2 -2 -2 -2 -3 -3 -4 -4 -4 -5 -5 -5 -5 -6 -6 -6 -7 -7 -8 -8 -8 -8 -8 -8 -8 -8 -8 -8 -8 -8 -8 -8 -8 -8 -8 -8 -8 -9 -9 -9 -9 -9 -10 -10 -10 -11 -11 -11
2 2 1 1 1 1 1 1 1 0 0 -0 -0 -0 -0 -0 -0 -0 -1 -1 -1 -1 -1 -2 -2 -2 -2 -2 -3 -3 -4 -4 -4 -5 -5 -5 -5 -5 -6 -6 -6 -6 -7 -8 -8 -8 -9 -8 -8 -8 -8 -8 -8 -8 -8 -8 -8 -8 -8 -8 -8 -8 -9 -9 -9 -9 -10 -10 -10 -10 -11 -11 -12 -12
1 1 1 1 1 1 1 0 0 0 0 0 -0 -0 -0 -0 -0 -1 -1 -1 -1 -1 -2 -2 -2 -2 -3 -3 -3 -4 -4 -4 -4 -5 -5 -5 -5 -6 -6 -6 -7 -7 -8 -8 -8 -9 -9 -8 -8 -8 -8 -8 -8 -8 -8 -8 -8 -8 -8 -8 -8 -9 -9 -9 -9 -10 -10 -10 -10 -11 -11 -11 -12 -12
1 1 1 1 1 1 1 1 1 0 0 0 0 -0 -0 -0 -1 -1 -1 -2 -2 -2 -2 -2 -3 -3 -4 -4 -4 -4 -4 -5 -5 -5 -5 -6 -6 -6 -7 -7 -7 -8 -8 -8 -9 -9 -8 -8 -8 -8 -8 -8 -8 -8 -8 -8 -8 -8 -8 -9 -9 -9 -9 -10 -10 -10 -10 -10 -11 -11 -11 -11 -12 -12
1 1 1 1 1 1 0 0 0 0 0 0 0 -0 -0 -1 -1 -2 -2 -2 -2 -2 -2 -3 -3 -4 -4 -4 -4 -4 -5 -5 -5 -5 -6 -6 -6 -7 -7 -7 -8 -8 -9 -9 -9 -9 -8 -8 -8 -8 -8 -8 -8 -8 -8 -8 -8 -8 -9 -9 -9 -9 -9 -10 -10 -10 -11 -11 -11 -11 -11 -12 -12 -12
1 1 1 1 1 0 0 0 0 0 0 0 -0 -1 -1 -1 -2 -2 -2 -2 -3 -3 -3 -3 -3 -4 -4 -4 -5 -5 -5 -5 -5 -6 -6 -7 -7 -7 -7 -8 -8 -9 -9 -9 -9 -9 -8 -8 -8 -8 -8 -8 -8 -8 -8 -9 -9 -9 -9 -9 -9 -10 -10 -10 -10 -10 -11 -11 -11 -11 -12 -12 -12 -12
1 1 1 1 0 0 0 0 0 -0 -0 -0 -0 -1 -2 -2 -2 -3 -3 -3 -3 -3 -3 -3 -4 -4 -4 -4 -4 -5 -5 -5 -6 -7 -7 -7 -7 -7 -8 -8 -9 -9 -9 -9 -9 -8 -8 -8 -8 -8 -8 -8 -8 -8 -9 -9 -9 -9 -9 -9 -9 -10 -10 -10 -10 -11 -11 -11 -11 -11 -11 -12 -12 -12
0 0 0 0 -0 -0 -0 -0 -0 -0 -0 -0 -0 -1 -2 -2 -3 -3 -4 -3 -3 -3 -3 -4 -4 -4 -4 -4 -4 -5 -5 -6 -6 -7 -7 -7 -7 -8 -8 -8 -9 -9 -9 -9 -8 -8 -8 -8 -8 -8 -8 -8 -8 -9 -9 -9 -9 -9 -9 -9 -10 -10 -10 -10 -11 -11 -11 -11 -12 -11 -11 -11 -11 -11
0 0 0 0 0 0 0 -0 -0 -0 -0 -0 -1 -1 -2 -2 -3 -4 -4 -4 -4 -4 -4 -4 -4 -4 -5 -5 -5 -6 -6 -6 -7 -7 -7 -7 -8 -8 -8 -8 -9 -9 -8 -8 -8 -8 -8 -8 -8 -8 -8 -8 -9 -9 -9 -9 -9 -9 -9 -10 -10 -10 -10 -11 -11 -11 -12 -12 -12 -12 -12 -11 -11 -11
-0 -0 -0 0 0 0 0 -0 -0 -0 -0 -1 -1 -1 -2 -2 -3 -3 -4 -4 -4 -4 -4 -4 -5 -5 -5 -6 -6 -6 -6 -7 -7 -7 -7 -8 -8 -8 -8 -8 -8 -8 -8 -8 -8 -8 -8 -8 -8 -8 -8 -8 -9 -9 -9 -9 -9 -9 -10 -10 -10 -11 -11 -11 -12 -12 -12 -12 -12 -12 -12 -12 -12 -12
-1 -0 -0 0 0 0 -0 -0 -0 -0 -1 -1 -1 -2 -2 -2 -2 -2 -3 -3 -3 -4 -4 -5 -6 -6 -6 -7 -7 -7 -7 -7 -7 -8 -8 -8 -8 -8 -8 -8 -8 -8 -8 -8 -8 -8 -8 -8 -8 -8 -8 -9 -9 -9 -9 -9 -9 -10 -10 -10 -10 -11 -11 -12 -12 -13 -13 -13 -13 -13 -13 -13 -12 -12
-1 -0 -0 -0 -0 -0 -0 -0 -1 -1 -1 -1 -1 -2 -2 -2 -2 -2 -2 -3 -3 -4 -5 -6 -6 -6 -7 -7 -7 -7 -7 -7 -8 -8 -8 -8 -8 -8 -8 -8 -8 -8 -8 -8 -8 -8 -8 -8 -8 -8 -9 -9 -9 -9 -9 -9 -10 -10 -10 -10 -11 -11 -11 -12 -12 -12 -13 -13 -13 -13 -13 -13 -13 -13
Height
3155 3156 3156 3156 3156 3155 3154 3153 3151 3149 3149 3149 3147 3145 3143 3142 3140 3139 3137 3136 3135 3135 3135 3136 3136 3136 3136 3137 3137 3138 3138 3138 3138 3138 3138 3137 3137 3137 3136 3136 3136 3136 3136 3135 3135 3135 3134 3134 3133 3132 3131 3131 3130 3129 3128 3127 3126 3125 3124 3123 3122 3121 3121 3120 3119 3117 3116 3115 3114 3112 3111 3110 3109 3107
3154 3155 3155 3155 3155 3154 3152 3151 3150 3148 3147 3146 3145 3144 3143 3141 3140 3138 3136 3135 3134 3134 3134 3134 3134 3134 3135 3135 3136 3136 3136 3136 3136 3136 3136 3136 3136 3135 3135 3135 3135 3135 3135 3134 3134 3134 3133 3133 3132 3131 3129 3129 3128 3128 3127 3126 3125 3124 3122 3121 3120 3119 3119 3118 3117 3116 3115 3113 3112 3111 3109 3108 3106 3105
3153 3153 3153 3153 3153 3153 3151 3149 3148 3146 3145 3144 3143 3142 3140 3139 3138 3136 3135 3133 3133 3132 3133 3133 3133 3133 3133 3133 3134 3134 3134 3135 3135 3135 3135 3135 3135 3135 3134 3134 3134 3134 3133 3133 3133 3132 3132 3131 3130 3129 3128 3127 3126 3126 3125 3124 3122 3121 3120 3119 3118 3118 3117 3117 3116 3115 3113 3112 3110 3109 3107 3106 3105 3103
3152 3152 3151 3151 3152 3151 3150 3148 3146 3144 3143 3142 3141 3140 3138 3136 3135 3134 3133 3132 3131 3131 3131 3131 3131 3131 3132 3132 3132 3132 3133 3133 3133 3133 3134 3134 3133 3133 3133 3133 3133 3132 3131 3131 3131 3130 3129 3129 3128 3128 3127 3126 3125 3123 3123 3122 3120 3119 3118 3117 3116 3116 3115 3115 3114 3113 3111 3110 3109 3107 3106 3104 3103 3101
3150 3150 3150 3150 3149 3149 3148 3147 3145 3143 3141 3140 3139 3138 3136 3134 3133 3132 3132 3131 3130 3129 3129 3129 3130 3130 3130 3131 3132 3131 3131 3131 3131 3132 3132 3132 3132 3132 3132 3132 3131 3130 3129 3129 3128 3128 3127 3127 3126 3125 3125 3124 3123 3122 3120 3119 3118 3117 3115 3114 3114 3113 3113 3113 3112 3110 3109 3108 3107 3105 3104 3102 3101 3099
3148 3148 3148 3148 3147 3147 3146 3145 3143 3142 3140 3139 3137 3136 3134 3133 3132 3131 3130 3130 3129 3128 3128 3127 3128 3128 3129 3130 3130 3129 3129 3129 3129 3130 3130 3130 3131 3130 3130 3130 3129 3128 3127 3127 3126 3126 3126 3125 3124 3123 3122 3121 3121 3120 3119 3117 3116 3114 3113 3112 3111 3111 3111 3110 3109 3108 3107 3106 3104 3103 3102 3100 3099 3097
3147 3147 3146 3146 3145 3145 3144 3143 3141 3140 3139 3138 3136 3135 3133 3132 3130 3130 3129 3129 3128 3127 3127 3126 3126 3127 3127 3127 3128 3128 3127 3127 3128 3128 3128 3129 3129 3128 3128 3127 3127 3126 3126 3125 3125 3124 3124 3123 3122 3121 3121 3119 3118 3117 3116 3115 3114 3112 3111 3110 3109 3109 3108 3108 3107 3106 3105 3104 3103 3101 3100 3099 3097 3095
3146 3145 3145 3144 3144 3143 3142 3140 3139 3138 3137 3136 3135 3134 3132 3131 3130 3129 3128 3127 3127 3126 3126 3125 3125 3125 3125 3125 3126 3126 3126 3126 3127 3127 3126 3127 3126 3126 3126 3125 3125 3124 3124 3124 3123 3123 3122 3121 3120 3119 3119 3118 3116 3115 3114 3112 3111 3110 3108 3107 3107 3106 3106 3105 3104 3103 3103 3102 3101 3100 3098 3096 3094 3093
3144 3143 3143 3143 3142 3141 3140 3139 3137 3136 3135 3134 3134 3132 3131 3130 3128 3128 3127 3126 3125 3125 3124 3124 3123 3123 3123 3123 3124 3124 3124 3125 3125 3125 3125 3125 3125 3124 3124 3123 3123 3123 3122 3122 3122 3121 3120 3119 3118 3117 3116 3115 3114 3113 3111 3110 3108 3107 3106 3105 3104 3104 3103 3103 3102 3101 3100 3100 3099 3098 3096 3094 3092 3090
3142 3142 3142 3141 3141 3140 3139 3137 3136 3135 3134 3133 3132 3131 3129 3128 3127 3126 3125 3124 3124 3123 3123 3122 3122 3121 3121 3121 3121 3122 3122 3122 3123 3123 3123 3123 3123 3123 3122 3121 3121 3122 3121 3120 3120 3119 3117 3116 3115 3115 3114 3113 3112 3110 3108 3107 3105 3104 3103 3102 3101 3101 3100 3100 3099 3099 3098 3098 3097 3095 3093 3091 3089 3088
3141 3141 3140 3139 3139 3138 3137 3136 3134 3133 3132 3131 3130 3129 3128 3127 3126 3125 3124 3123 3122 3121 3121 3120 3120 3119 3119 3119 3119 3120 3120 3121 3121 3121 3121 3121 3121 3120 3120 3120 3120 3120 3119 3118 3117 3116 3115 3114 3113 3112 3112 3111 3109 3108 3106 3104 3103 3101 3100 3099 3098 3098 3097 3097 3097 3097 3097 3096 3095 3093 3091 3088 3087 3085
3140 3139 3138 3137 3137 3136 3135 3134 3133 3131 3130 3129 3129 3128 3127 3126 3124 3123 3122 3121 3120 3120 3119 3119 3118 3118 3117 3117 3117 3118 3119 3119 3120 3119 3119 3119 3119 3118 3118 3118 3118 3118 3117 3116 3115 3114 3112 3111 3110 3109 3108 3108 3107 3105 3103 3101 3100 3099 3098 3096 3095 3095 3095 3095 3095 3095 3094 3094 3092 3090 3088 3086 3084 3082
3138 3137 3137 3136 3135 3134 3133 3132 3131 3130 3129 3128 3127 3126 3125 3124 3123 3122 3121 3120 3119 3118 3118 3118 3117 3117 3116 3116 3116 3117 3117 3118 3117 3117 3117 3117 3117 3117 3116 3116 3116 3115 3115 3114 3113 3112 3110 3109 3108 3106 3105 3104 3103 3102 3101 3099 3097 3096 3095 3094 3093 3093 3093 3093 3092 3092 3092 3091 3089 3087 3085 3083 3081 3079
3136 3135 3135 3134 3133 3132 3131 3130 3129 3128 3127 3126 3125 3125 3124 3123 3121 3120 3119 3119 3118 3117 3117 3116 3116 3116 3115 3115 3115 3115 3115 3115 3115 3115 3115 3115 3115 3115 3114 3114 3114 3113 3112 3111 3110 3109 3108 3107 3105 3104 3103 3102 3100 3099 3098 3097 3095 3094 3093 3091 3090 3090 3090 3090 3089 3089 3088 3087 3086 3084 3082 3080 3078 3077
3134 3133 3133 3132 3131 3131 3130 3129 3128 3126 3125 3124 3124 3123 3122 3121 3120 3119 3118 3117 3116 3116 3115 3115 3115 3114 3114 3114 3113 3114 3114 3114 3114 3114 3113 3113 3113 3112 3112 3112 3112 3111 3110 3109 3108 3107 3106 3104 3103 3102 3102 3101 3098 3096 3094 3093 3092 3091 3089 3088 3088 3087 3087 3087 3086 3085 3084 3084 3082 3081 3079 3077 3076 3074
3131 3131 3130 3130 3130 3129 3128 3127 3126 3125 3124 3123 3122 3122 3121 3120 3119 3118 3117 3116 3115 3115 3114 3114 3113 3113 3113 3113 3112 3113 3113 3113 3112 3112 3112 3111 3111 3111 3110 3110 3110 3109 3107 3106 3105 3104 3103 3102 3101 3100 3099 3098 3096 3094 3092 3091 3089 3088 3087 3086 3085 3085 3084 3084 3083 3082 3082 3080 3079 3078 3076 3074 3073 3071
3129 3128 3128 3128 3127 3126 3126 3125 3124 3124 3123 3122 3121 3120 3119 3119 3118 3117 3116 3116 3115 3114 3113 3113 3112 3112 3112 3112 3112 3112 3112 3111 3111 3111 3110 3110 3109 3109 3108 3108 3107 3105 3104 3103 3102 3101 3100 3099 3098 3098 3097 3096 3094 3093 3091 3089 3087 3086 3085 3084 3083 3083 3082 3082 3081 3080 3079 3077 3076 3074 3073 3071 3070 3068
3126 3126 3126 3125 3125 3124 3124 3123 3123 3122 3121 3120 3119 3119 3118 3117 3117 3116 3115 3115 3114 3113 3113 3112 3112 3111 3111 3111 3111 3111 3110 3110 3110 3109 3108 3108 3107 3107 3106 3105 3103 3103 3101 3100 3099 3098 3098 3097 3096 3095 3094 3093 3092 3090 3089 3087 3086 3085 3084 3082 3081 3081 3080 3079 3078 3077 3076 3074 3073 3071 3070 3068 3066 3065
3124 3123 3123 3123 3123 3122 3122 3121 3120 3120 3119 3119 3118 3117 3117 3116 3115 3115 3114 3114 3113 3112 3112 3111 3111 3110 3110 3110 3110 3109 3109 3108 3107 3107 3106 3105 3105 3104 3103 3102 3101 3100 3099 3098 3097 3096 3095 3095 3094 3092 3091 3090 3089 3088 3087 3086 3085 3083 3082 3081 3080 3079 3078 3076 3075 3074 3073 3071 3069 3068 3067 3065 3063 3062
3121 3121 3121 3121 3120 3120 3119 3118 3118 3118 3117 3117 3116 3116 3115 3115 3114 3114 3113 3113 3112 3111 3111 3110 3109 3109 3109 3108 3108 3107 3107 3106 3105 3105 3104 3103 3103 3102 3100 3099 3098 3097 3096 3095 3094 3093 3093 3092 3091 3090 3088 3087 3086 3085 3085 3084 3083 3082 3080 3079 3078 3076 3075 3074 3073 3071 3070 3068 3067 3066 3064 3062 3061 3059
3119 3119 3119 3118 3118 3117 3116 3116 3115 3115 3115 3115 3114 3114 3114 3114 3113 3113 3112 3111 3111 3110 3109 3108 3108 3107 3107 3106 3106 3105 3105 3104 3103 3103 3102 3101 3100 3099 3097 3096 3096 3095 3094 3093 3092 3091 3090 3089 3088 3087 3086 3085 3084 3083 3082 3081 3080 3079 3078 3077 3076 3075 3073 3072 3070 3069 3068 3066 3065 3063 3062 3060 3058 3057
3116 3116 3116 3116 3115 3114 3113 3113 3113 3113 3113 3113 3113 3113 3113 3112 3112 3111 3110 3110 3109 3108 3107 3106 3106 3105 3104 3103 3103 3102 3102 3101 3101 3100 3100 3099 3097 3095 3094 3093 3093 3092 3091 3090 3089 3088 3087 3086 3085 3084 3082 3081 3080 3080 3079 3078 3077 3076 3076 3075 3074 3072 3071 3069 3068 3067 3065 3064 3062 3061 3059 3058 3056 3054
3113 3113 3113 3113 3112 3111 3110 3110 3110 3111 3111 3111 3111 3111 3111 3111 3110 3110 3109 3108 3107 3106 3105 3104 3103 3102 3101 3101 3100 3100 3099 3099 3098 3098 3097 3096 3094 3093 3092 3091 3090 3088 3087 3086 3086 3085 3084 3082 3081 3080 3079 3078 3077 3076 3075 3075 3074 3073 3072 3071 3070 3069 3068 3067 3065 3064 3063 3061 3060 3058 3056 3055 3053 3051
3111 3111 3111 3110 3109 3108 3108 3108 3108 3109 3109 3109 3109 3110 3110 3109 3108 3107 3106 3105 3104 3103 3102 3101 3100 3099 3099 3098 3098 3097 3097 3096 3096 3095 3094 3093 3092 3090 3089 3088 3087 3085 3084 3083 3082 3081 3080 3079 3078 3077 3076 3075 3073 3073 3072 3071 3071 3070 3069 3068 3067 3066 3065 3064 3062 3061 3060 3058 3057 3055 3054 3052 3050 3047
3109 3109 3108 3107 3106 3105 3105 3105 3106 3106 3107 3107 3108 3108 3108 3107 3106 3105 3104 3103 3102 3100 3099 3098 3098 3097 3097 3096 3096 3095 3094 3094 3093 3092 3091 3090 3089 3088 3086 3085 3084 3082 3081 3080 3079 3078 3077 3076 3075 3074 3073 3071 3070 3070 3069 3068 3068 3067 3066 3065 3064 3063 3062 3061 3060 3058 3057 3056 3054 3052 3050 3048 3046 3044
3106 3106 3106 3105 3103 3103 3102 3103 3103 3104 3104 3105 3105 3105 3105 3104 3104 3103 3102 3101 3100 3098 3098 3097 3096 3095 3095 3094 3094 3093 3092 3091 3090 3089 3088 3087 3086 3085 3084 3082 3081 3080 3078 3078 3077 3075 3074 3073 3072 3071 3070 3069 3068 3067 3067 3066 3065 3064 3063 3062 3061 3060 3059 3058 3057 3056 3054 3053 3051 3049 3047 3044 3042 3040
3103 3103 3103 3102 3100 3100 3100 3100 3100 3101 3102 3102 3102 3102 3102 3102 3101 3101 3100 3099 3098 3097 3096 3095 3095 3094 3093 3092 3091 3091 3090 3089 3087 3086 3085 3084 3083 3082 3081 3080 3079 3077 3076 3075 3074 3072 3071 3070 3068 3068 3067 3066 3065 3065 3064 3063 3062 3061 3061 3060 3059 3058 3057 3055 3054 3053 3051 3049 3047 3045 3043 3041 3038 3036
3100 3100 3099 3098 3097 3097 3097 3097 3097 3098 3099 3099 3099 3099 3099 3099 3099 3098 3098 3097 3096 3095 3094 3093 3092 3091 3091 3090 3089 3088 3087 3086 3085 3084 3083 3082 3081 3080 3079 3077 3076 3075 3073 3072 3070 3069 3068 3067 3066 3065 3064 3064 3063 3062 3061 3061 3060 3059 3058 3057 3056 3055 3054 3052 3051 3049 3048 3046 3044 3042 3040 3037 3035 3032
3096 3096 3095 3095 3094 3094 3094 3095 3095 3095 3096 3096 3097 3097 3097 3097 3096 3095 3095 3095 3094 3093 3092 3091 3090 3089 3089 3088 3087 3086 3085 3083 3082 3081 3080 3079 3078 3077 3076 3075 3073 3072 3071 3069 3068 3067 3066 3065 3064 3063 3063 3062 3061 3060 3059 3059 3058 3057 3056 3055 3053 3052 3051 3050 3048 3046 3045 3043 3041 3038 3036 3033 3031 3028
3092 3092 3091 3091 3091 3091 3092 3092 3093 3093 3093 3094 3094 3095 3094 3094 3093 3093 3092 3092 3091 3090 3089 3088 3087 3087 3086 3085 3084 3083 3082 3081 3080 3079 3078 3076 3075 3074 3073 3072 3071 3069 3068 3067 3066 3064 3063 3062 3062 3061 3060 3060 3059 3058 3058 3057 3055 3054 3053 3052 3051 3050 3048 3047 3045 3043 3041 3039 3037 3035 3032 3030 3027 3024
3088 3088 3088 3088 3089 3089 3089 3090 3090 3091 3091 3091 3092 3092 3091 3091 3091 3090 3089 3089 3088 3087 3086 3085 3085 3084 3083 3082 3081 3080 3079 3078 3077 3076 3075 3074 3073 3072 3071 3070 3068 3066 3065 3064 3063 3062 3061 3060 3059 3059 3058 3058 3057 3057 3056 3054 3053 3052 3051 3050 3048 3047 3045 3043 3041 3039 3037 3035 3033 3030 3028 3025 3022 3019
3085 3085 3085 3085 3086 3087 3087 3088 3088 3088 3088 3089 3089 3089 3088 3088 3087 3087 3086 3085 3085 3085 3084 3083 3083 3082 3080 3079 3079 3078 3077 3076 3075 3074 3073 3072 3071 3070 3069 3067 3065 3064 3063 3062 3061 3060 3059 3058 3057 3057 3056 3056 3055 3054 3053 3052 3051 3050 3049 3047 3046 3044 3042 3040 3038 3036 3033 3031 3028 3026 3023 3021 3017 3014
3082 3082 3082 3083 3083 3084 3085 3085 3085 3085 3085 3086 3086 3085 3085 3085 3084 3084 3083 3083 3082 3082 3081 3081 3080 3079 3078 3077 3076 3075 3074 3073 3072 3071 3071 3070 3068 3067 3066 3065 3063 3062 3061 3060 3059 3058 3057 3056 3056 3055 3055 3054 3053 3052 3051 3050 3048 3047 3046 3044 3043 3041 3039 3037 3034 3032 3029 3026 3024 3021 3019 3017 3013 3010
3080 3080 3081 3081 3081 3082 3082 3082 3082 3082 3083 3083 3083 3083 3082 3082 3081 3081 3080 3080 3079 3079 3079 3078 3077 3076 3075 3074 3074 3073 3072 3071 3070 3069 3068 3067 3066 3065 3064 3062 3061 3060 3059 3058 3057 3056 3055 3055 3054 3054 3053 3052 3051 3050 3048 3047 3046 3045 3043 3041 3040 3038 3035 3033 3031 3028 3025 3022 3019 3017 3015 3013 3009 3005
3078 3078 3079 3079 3079 3079 3080 3080 3080 3080 3080 3080 3080 3080 3080 3079 3079 3078 3078 3077 3077 3077 3076 3075 3074 3073 3073 3072 3071 3071 3070 3069 3068 3067 3066 3065 3063 3062 3061 3060 3059 3058 3057 3056 3055 3054 3054 3053 3053 3052 3051 3050 3048 3047 3046 3045 3044 3042 3040 3038 3036 3034 3032 3029 3027 3024 3021 3018 3016 3013 3011 3009 3006 3002
3076 3076 3077 3077 3077 3077 3077 3078 3078 3078 3078 3078 3077 3077 3077 3077 3076 3076 3075 3075 3074 3074 3073 3072 3071 3071 3070 3069 3069 3068 3067 3066 3065 3065 3063 3062 3061 3060 3059 3058 3057 3055 3054 3053 3053 3052 3052 3051 3051 3050 3049 3048 3046 3045 3044 3043 3041 3039 3037 3035 3033 3031 3028 3026 3024 3021 3018 3015 3012 3010 3007 3005 3003 3000
3074 3074 3074 3075 3075 3075 3075 3076 3076 3075 3075 3075 3074 3074 3074 3074 3073 3073 3072 3072 3071 3071 3070 3069 3069 3068 3067 3066 3066 3066 3065 3064 3063 3062 3061 3060 3058 3057 3056 3055 3054 3053 3052 3051 3051 3051 3050 3049 3049 3048 3046 3045 3044 3043 3041 3039 3038 3036 3034 3032 3030 3027 3025 3023 3021 3018 3015 3011 3008 3006 3003 3000 2998 2996
3071 3072 3072 3072 3072 3072 3073 3073 3073 3072 3072 3072 3072 3072 3071 3071 3070 3070 3070 3069 3069 3068 3068 3067 3066 3065 3064 3064 3064 3063 3062 3061 3060 3059 3058 3057 3056 3055 3054 3053 3052 3051 3050 3050 3049 3049 3048 3047 3047 3045 3044 3043 3041 3040 3038 3036 3035 3033 3031 3029 3026 3024 3022 3020 3017 3014 3011 3007 3004 3002 2999 2996 2993 2991
3070 3070 3070 3070 3070 3070 3070 3070 3070 3070 3070 3069 3069 3069 3068 3068 3068 3067 3067 3067 3067 3066 3065 3064 3064 3063 3062 3062 3061 3061 3060 3058 3057 3057 3056 3055 3054 3053 3052 3050 3050 3049 3049 3049 3048 3047 3047 3046 3044 3043 3042 3040 3038 3037 3035 3033 3032 3030 3028 3026 3023 3021 3018 3016 3013 3011 3008 3004 3000 2998 2995 2992 2989 2987
3067 3068 3068 3067 3067 3067 3067 3067 3067 3067 3066 3066 3066 3065 3065 3065 3065 3064 3064 3064 3064 3064 3063 3062 3062 3061 3060 3060 3059 3058 3057 3056 3056 3055 3054 3053 3052 3051 3050 3049 3048 3048 3048 3047 3047 3046 3045 3044 3042 3041 3039 3038 3036 3034 3033 3031 3029 3027 3024 3022 3020 3018 3015 3013 3010 3007 3004 3000 2997 2994 2991 2989 2986 2984
3064 3065 3065 3065 3064 3064 3064 3064 3063 3063 3063 3062 3062 3062 3062 3062 3061 3061 3061 3061 3061 3061 3061 3060 3059 3059 3059 3058 3057 3056 3056 3055 3054 3053 3052 3051 3050 3049 3048 3048 3048 3047 3047 3046 3045 3044 3043 3042 3040 3039 3037 3036 3034 3032 3030 3028 3026 3024 3021 3019 3017 3014 3012 3009 3006 3003 3000 2996 2993 2990 2987 2984 2981 2979
3061 3061 3062 3061 3061 3061 3060 3060 3060 3059 3059 3059 3059 3059 3059 3059 3059 3059 3059 3058 3059 3058 3058 3058 3058 3057 3057 3056 3055 3054 3053 3053 3052 3051 3050 3049 3048 3048 3047 3047 3047 3046 3046 3045 3044 3042 3041 3040 3038 3037 3035 3033 3032 3030 3028 3026 3023 3021 3019 3016 3014 3011 3008 3004 3001 2999 2995 2992 2988 2985 2983 2980 2977 2974
3059 3058 3058 3058 3058 3058 3057 3057 3057 3057 3056 3056 3056 3056 3056 3056 3056 3056 3056 3056 3056 3056 3056 3055 3055 3055 3054 3053 3053 3052 3051 3050 3050 3049 3048 3047 3047 3046 3046 3046 3045 3045 3044 3043 3042 3040 3039 3037 3036 3035 3033 3031 3029 3027 3025 3023 3021 3018 3016 3014 3011 3008 3005 3002 2999 2996 2992 2989 2985 2982 2979 2976 2973 2970
3055 3055 3055 3055 3055 3055 3055 3054 3054 3054 3054 3054 3054 3054 3054 3054 3054 3054 3054 3054 3053 3053 3053 3052 3052 3052 3051 3051 3050 3050 3049 3049 3048 3047 3046 3046 3045 3045 3045 3044 3044 3043 3042 3041 3040 3038 3037 3035 3034 3032 3031 3029 3027 3025 3022 3020 3018 3015 3013 3011 3008 3006 3003 3001 2998 2995 2992 2988 2984 2980 2977 2974 2970 2967
3052 3052 3052 3052 3053 3052 3052 3052 3052 3052 3052 3052 3052 3052 3052 3052 3052 3052 3051 3051 3050 3050 3050 3050 3049 3049 3049 3049 3048 3048 3047 3047 3046 3045 3045 3045 3044 3044 3043 3043 3042 3041 3040 3039 3037 3036 3035 3033 3032 3030 3028 3026 3024 3022 3020 3017 3014 3012 3010 3007 3005 3002 3000 2997 2994 2992 2991 2988 2983 2979 2976 2972 2968 2965
Wind_Speed
19 18 17 17 17 18 19 20 22 23 23 23 23 24 24 25 26 22 18 14 12 12 10 9 11 14 16 16 15 13 12 12 12 10 8 6 5 4 3 2 2 4 5 6 7 8 9 11 13 14 15 14 14 15 16 17 18 18 19 19 20 20 21 21 21 21 21 21 21 21 21 22 22 22
18 17 18 18 17 17 19 21 22 22 22 23 23 24 24 24 23 20 17 14 12 11 9 8 10 14 17 16 15 14 14 14 13 11 9 7 5 3 3 2 3 4 6 8 10 11 12 14 15 16 17 17 17 17 18 19 19 20 20 20 21 21 21 21 21 21 21 21 21 21 22 22 21 22
18 18 19 19 17 17 20 21 22 22 22 22 23 24 24 22 19 17 16 14 12 11 8 9 11 14 18 18 16 16 15 14 14 12 9 8 7 6 5 4 4 6 9 12 14 15 17 17 18 18 19 19 20 20 19 20 20 20 21 21 21 21 21 21 21 21 21 21 21 21 21 21 22 23
18 18 19 19 17 17 19 21 22 22 22 22 22 22 22 21 18 16 15 13 12 11 9 10 11 14 17 17 16 17 16 15 15 13 10 9 9 9 7 6 8 11 14 17 18 19 19 19 19 20 20 21 21 21 20 19 20 20 21 21 21 21 21 21 21 21 21 21 21 21 21 22 24 26
18 18 17 19 19 19 19 20 20 21 21 21 21 21 21 19 17 15 15 13 12 11 9 10 11 13 16 15 17 19 18 16 16 14 12 11 10 10 10 9 12 15 18 20 18 17 17 18 19 20 20 20 20 19 19 19 19 20 20 21 21 21 20 21 21 21 21 21 20 20 22 24 26 27
17 16 17 20 20 20 20 20 19 19 20 20 21 21 20 18 16 15 14 13 12 11 10 10 10 11 13 14 16 19 18 17 16 15 15 14 13 13 14 14 17 20 21 19 17 16 16 17 18 19 19 19 18 18 18 19 19 20 20 21 21 21 21 21 22 21 21 20 20 22 24 25 26 28
17 17 19 21 20 20 21 20 18 18 18 19 20 21 19 16 14 14 14 14 12 11 11 11 10 10 11 12 14 18 20 19 18 16 14 13 14 16 17 18 19 20 19 17 16 17 18 19 20 20 19 19 18 18 18 19 19 20 21 22 22 22 22 21 21 21 20 20 21 22 23 25 27 27
17 19 20 19 19 19 20 20 18 18 18 18 19 19 17 14 12 12 13 13 13 12 11 11 11 10 11 12 13 16 19 20 18 15 13 13 13 13 12 12 13 13 14 16 18 20 21 21 21 21 20 19 19 19 19 19 20 21 22 23 22 22 22 21 21 20 20 20 20 22 24 26 26 24
19 20 19 18 18 18 19 19 18 18 17 17 18 16 14 12 11 10 11 12 12 12 12 12 12 11 11 13 12 13 15 17 15 13 12 12 10 9 9 10 11 13 16 19 21 23 23 22 21 21 20 20 20 20 20 20 21 22 23 23 23 22 22 21 20 20 19 19 20 23 25 25 23 23
19 19 18 17 17 17 17 18 17 17 16 17 17 15 12 10 9 9 10 11 11 11 11 11 12 12 12 12 12 10 11 12 13 12 12 11 9 9 11 12 13 15 18 21 23 23 22 21 21 21 20 20 21 21 21 21 22 22 23 23 23 23 21 20 20 19 19 20 22 24 24 23 22 23
17 17 16 16 16 16 16 16 16 16 16 16 16 15 13 10 9 9 10 11 10 10 10 10 10 11 11 11 10 9 10 10 11 12 12 10 10 12 13 13 14 17 19 21 22 22 22 22 22 21 21 22 22 22 22 21 21 22 22 23 23 22 21 20 19 20 20 21 22 23 22 22 22 23
16 16 15 15 15 15 16 16 16 16 15 16 16 15 13 11 10 10 10 10 9 8 7 7 8 9 10 10 8 7 7 7 8 11 12 12 13 14 14 15 16 18 20 21 21 21 22 22 23 23 23 23 22 21 21 21 21 22 22 23 23 23 22 20 20 20 21 22 22 22 21 22 23 24
15 15 15 14 14 15 16 16 16 16 15 15 16 15 13 11 10 10 10 9 8 6 6 6 6 7 8 8 6 5 6 8 11 13 13 13 14 15 16 17 18 19 20 21 21 21 22 23 23 24 24 23 22 22 22 22 23 23 24 24 25 24 23 22 21 22 22 22 22 22 22 22 23 25
15 15 14 13 13 14 15 16 16 16 16 15 16 15 14 12 11 9 9 8 7 5 5 5 5 6 6 6 6 8 10 12 13 13 13 13 15 16 17 18 19 19 20 21 21 22 22 23 23 24 24 24 24 24 24 24 24 25 25 26 26 26 24 23 23 23 24 24 23 23 23 24 25 26
15 14 13 12 12 13 14 15 16 16 16 16 16 15 14 13 11 10 9 8 7 5 4 4 4 4 4 4 6 8 10 11 12 12 13 14 15 17 18 18 19 19 20 22 23 22 22 22 24 26 25 23 24 25 26 25 25 25 26 27 27 26 26 25 25 25 25 25 24 24 24 25 26 26
14 13 12 11 11 12 13 15 16 16 16 15 15 15 14 13 11 10 10 9 6 4 3 3 3 3 2 3 5 6 8 9 10 11 12 13 15 16 17 18 19 20 22 23 22 21 22 24 26 26 25 24 24 25 26 26 26 26 26 27 27 27 27 27 27 26 26 25 25 25 26 26 26 26
13 12 11 11 11 11 12 14 15 17 16 15 15 15 14 13 11 9 9 8 7 5 4 4 4 3 3 4 5 7 7 8 9 10 12 14 16 17 18 19 20 21 22 22 22 22 23 25 26 26 26 25 25 25 26 26 26 25 26 27 27 27 27 27 27 26 26 26 26 26 26 26 27 27
13 12 11 10 10 10 12 13 15 16 16 15 15 15 14 12 10 9 8 8 7 6 6 5 5 5 5 6 7 8 9 10 11 13 15 17 18 19 20 21 21 21 22 22 22 23 24 25 26 27 27 26 26 26 25 25 25 25 25 26 26 27 27 26 26 26 26 27 27 27 27 27 28 29
14 13 11 10 10 10 12 13 14 16 16 15 14 14 13 12 10 9 8 8 9 8 8 8 8 8 8 8 9 11 12 13 15 17 19 20 21 22 23 24 23 22 23 23 23 23 23 24 25 26 27 27 27 27 25 24 23 23 23 24 25 26 26 25 25 26 27 27 27 27 27 28 29 31
15 13 12 11 10 11 12 13 14 15 15 15 14 13 13 12 11 10 10 10 10 10 10 11 11 11 12 12 12 14 15 16 18 20 22 23 24 25 26 26 24 23 23 23 24 24 24 25 25 26 27 27 27 26 24 23 22 21 21 22 23 24 24 25 26 26 27 27 26 26 28 29 31 32
15 14 13 12 11 12 13 13 14 15 16 15 14 13 13 12 12 11 11 12 12 13 13 14 14 15 15 15 16 16 16 17 18 20 22 23 24 26 26 25 23 23 24 24 25 25 25 26 26 26 26 27 26 25 24 22 21 20 20 21 22 23 24 25 26 26 25 25 26 27 29 30 32 33
15 14 14 13 13 13 13 13 14 15 16 16 15 14 14 13 13 13 13 13 14 15 15 16 16 17 17 17 17 17 17 18 19 20 21 22 23 25 25 23 22 22 24 24 25 25 26 27 26 25 26 26 26 25 23 22 21 21 21 21 22 23 23 24 24 24 24 24 26 28 30 31 32 33
15 15 14 14 14 14 13 13 14 16 16 16 16 15 14 14 13 13 14 14 15 16 17 17 17 17 17 17 16 17 18 19 19 20 21 21 22 23 23 21 20 20 22 23 24 25 25 25 25 25 26 26 26 25 23 23 23 23 23 23 22 22 22 22 22 22 24 25 27 29 30 31 32 33
16 16 15 15 15 13 12 13 14 16 17 17 16 15 14 14 14 14 15 16 17 18 17 16 15 15 15 15 16 17 18 20 21 21 22 22 22 22 22 21 20 20 22 23 24 24 24 24 24 25 25 26 26 25 24 24 24 24 23 22 21 21 20 21 22 23 25 26 28 29 30 31 32 33
17 16 17 16 15 13 12 14 15 17 18 18 17 15 15 15 15 15 16 17 19 19 17 15 14 15 15 16 18 19 20 22 23 23 23 23 22 21 22 22 23 23 23 24 24 24 24 25 25 25 25 26 26 25 25 25 24 22 21 20 19 19 20 21 23 24 25 27 28 29 30 31 32 34
17 17 18 17 15 13 13 15 17 18 18 18 17 17 16 16 16 16 17 19 19 18 16 15 16 17 17 17 18 20 21 23 23 23 22 21 20 21 22 24 25 25 25 26 26 26 25 26 25 25 25 25 25 25 25 23 21 19 18 18 18 19 21 22 23 24 25 27 28 29 31 32 33 35
18 18 18 16 15 14 15 17 19 20 20 20 19 19 18 18 17 17 18 19 18 17 16 17 18 17 16 17 18 19 20 20 21 21 21 21 21 21 23 25 26 27 26 26 27 27 26 25 25 25 25 25 24 24 22 19 17 16 17 18 19 20 21 22 23 24 26 27 29 30 32 33 34 36
18 17 17 16 16 16 16 18 20 22 22 21 21 21 19 18 18 18 18 18 18 17 17 18 17 16 16 17 19 20 20 20 20 20 20 20 20 20 22 25 27 27 26 26 26 26 25 24 24 24 23 23 22 20 17 16 16 16 18 19 20 21 22 23 24 25 26 28 29 30 32 33 35 36
18 18 17 16 16 17 17 19 21 23 23 23 23 22 20 20 21 19 17 17 17 17 18 19 17 17 17 20 21 21 21 20 20 19 19 19 20 21 23 26 27 25 24 24 25 25 24 23 22 22 21 20 18 16 15 15 17 18 19 20 21 21 22 23 25 26 27 29 30 31 33 34 35 36
18 19 17 16 16 17 17 19 21 23 24 24 22 21 22 23 21 17 15 15 16 17 19 19 17 17 19 22 22 22 22 21 20 19 20 21 23 24 24 24 23 21 21 21 22 22 22 21 21 20 18 16 14 14 15 17 18 19 19 20 21 22 23 24 25 27 28 29 31 32 33 34 35 36
19 19 17 16 16 16 17 19 21 22 23 22 21 22 23 22 18 15 14 15 16 18 19 17 16 19 22 22 21 21 21 21 20 20 22 24 25 23 22 21 21 20 20 20 20 20 19 19 18 17 15 14 14 15 17 18 18 19 19 20 21 23 24 25 26 28 29 31 32 33 34 35 36 37
18 17 17 16 15 16 17 18 20 21 22 22 22 22 21 17 15 15 17 18 18 18 17 17 18 21 22 21 22 22 20 20 21 22 24 24 23 22 21 21 21 21 21 21 20 19 17 16 15 14 14 15 16 17 17 18 18 19 20 21 22 23 25 26 28 29 30 32 33 33 34 35 37 38
15 15 15 15 16 16 17 18 20 21 22 21 19 16 15 15 15 17 18 18 17 16 16 17 19 20 20 21 23 23 22 22 23 23 23 22 21 21 20 21 22 22 22 21 19 17 15 14 13 14 15 16 17 17 17 18 18 19 21 22 23 24 26 27 28 30 31 33 34 35 35 36 37 38
13 14 14 15 16 17 18 19 20 20 19 17 14 13 14 15 15 17 17 16 14 15 17 19 19 19 19 22 23 23 23 23 23 22 22 21 21 21 22 23 24 24 22 20 18 15 13 13 14 15 16 16 16 16 17 18 19 20 21 23 24 25 27 28 29 31 32 34 35 36 36 35 36 38
14 14 14 14 15 15 16 16 16 16 17 16 15 15 16 16 15 15 16 16 16 18 20 20 19 18 18 20 21 21 21 21 20 20 22 23 23 24 24 25 25 24 22 19 16 13 13 14 15 16 16 16 16 16 17 18 20 21 22 23 25 26 27 29 30 32 33 35 36 36 36 35 34 36
13 14 15 14 13 13 14 15 16 17 18 17 16 16 16 16 15 16 18 19 19 20 21 19 17 16 16 17 19 19 19 20 20 22 24 25 26 26 26 26 24 22 20 17 14 13 14 16 17 17 17 16 17 17 18 19 21 22 24 25 26 27 28 29 30 32 34 35 36 36 36 35 33 33
11 12 14 14 13 14 16 17 17 16 15 13 13 15 16 17 17 18 19 19 19 21 21 19 16 15 14 16 19 20 20 21 22 23 24 25 26 26 26 24 22 19 16 14 13 14 16 18 18 18 17 17 17 18 20 21 22 23 25 26 27 28 29 30 31 32 34 35 36 36 36 35 34 34
11 13 15 15 15 16 15 14 13 13 14 14 15 17 18 19 20 20 19 19 20 22 22 19 16 14 14 17 21 22 22 23 24 24 25 25 26 26 25 22 18 15 13 12 13 15 17 18 18 17 17 18 19 20 21 22 23 24 26 27 28 29 30 31 32 33 34 36 36 36 36 36 36 35
11 15 17 16 15 15 15 14 15 16 17 18 19 20 20 20 20 20 20 19 21 22 22 19 17 16 18 22 23 22 23 25 26 26 26 26 25 25 22 19 15 12 11 13 15 17 18 18 18 18 18 19 21 22 22 24 25 26 27 28 29 30 31 32 33 34 34 35 36 35 35 36 36 36
12 14 15 15 15 16 17 19 19 20 20 21 21 20 19 19 20 20 19 19 19 19 18 17 17 18 21 23 23 22 24 26 26 25 25 25 23 22 19 16 13 11 12 14 16 18 18 18 18 18 19 20 21 23 24 25 26 27 28 29 30 31 32 33 34 34 34 34 35 35 35 35 36 35
14 15 16 17 18 20 20 21 22 21 21 20 19 18 17 17 17 17 17 17 18 18 17 18 19 21 21 20 21 22 24 24 24 24 24 23 21 19 16 13 11 12 14 17 18 18 17 17 18 19 20 21 22 23 24 25 26 28 29 30 31 32 33 34 34 34 34 34 35 36 36 36 37 36
17 19 20 20 21 22 21 21 21 20 19 18 18 17 15 14 14 15 15 16 17 18 19 19 19 18 17 18 21 22 22 22 22 22 21 21 19 17 13 12 12 14 16 18 18 17 17 17 18 19 20 21 22 24 25 26 27 28 29 30 31 33 34 35 35 35 35 35 36 36 37 37 38 38
19 20 21 20 20 19 19 18 18 18 17 16 15 14 13 12 13 13 13 14 15 16 15 14 13 14 16 19 21 21 21 20 20 20 20 19 17 14 12 12 14 16 17 17 17 16 17 17 18 20 21 22 23 24 26 27 28 29 29 30 31 32 32 33 34 33 34 35 36 37 37 38 39 39
18 19 19 19 17 17 17 17 17 16 14 13 12 11 11 11 11 11 11 12 12 11 10 11 12 15 17 18 19 20 20 19 19 18 17 15 12 11 12 15 16 17 17 16 16 16 17 18 19 20 22 23 24 25 26 28 29 30 31 31 31 32 32 31 31 30 30 32 34 35 36 37 38 39
17 18 19 17 16 16 15 15 15 14 12 11 10 10 10 11 11 11 11 11 11 10 10 11 13 14 16 17 18 18 18 18 16 14 12 10 10 12 14 16 16 16 15 15 16 16 17 18 20 21 23 24 25 26 28 29 30 31 31 32 32 33 33 32 31 30 28 28 31 33 34 35 37 37
Wind_Direction
258 267 277 284 290 295 300 303 303 306 308 307 308 309 312 314 313 313 313 309 297 284 269 257 250 236 227 233 241 242 244 250 260 269 275 281 294 301 297 304 315 315 323 327 324 321 320 321 324 324 323 323 323 324 324 321 317 315 314 312 311 309 308 307 307 307 307 308 308 309 308 308 309 309
261 271 281 284 288 294 297 300 302 305 305 304 305 306 307 308 308 308 312 309 297 288 272 249 241 233 230 235 240 240 241 245 252 260 267 270 270 256 239 257 295 311 314 314 316 318 318 320 323 323 323 322 322 321 319 315 312 311 310 309 308 307 306 307 308 309 310 309 309 309 309 308 308 309
265 275 281 283 286 291 293 297 302 305 307 306 306 306 307 308 307 306 310 306 296 288 269 245 239 233 234 242 243 242 244 246 249 255 259 259 253 247 249 266 293 309 311 311 314 317 315 314 314 316 317 318 317 315 313 310 309 308 307 306 307 307 308 309 310 311 310 310 309 308 307 307 308 311
268 274 278 281 283 288 294 300 305 310 311 310 308 308 310 310 308 308 310 306 298 292 276 256 248 241 242 248 245 244 247 250 251 253 253 250 247 247 252 270 290 303 311 315 317 317 314 312 310 311 311 311 310 309 309 308 307 306 306 307 308 309 310 311 312 311 310 309 307 304 305 306 310 314
271 273 276 282 285 291 299 306 310 314 315 314 312 311 312 310 307 308 311 309 301 294 280 263 254 248 247 247 243 245 249 252 253 251 248 247 250 251 251 265 282 296 307 313 315 315 315 313 312 311 309 307 306 306 308 309 308 308 308 308 309 310 311 311 310 309 308 306 304 303 305 308 312 317
274 276 279 284 288 295 303 309 314 316 316 317 316 316 316 313 308 308 312 311 303 292 279 265 255 248 247 248 249 249 247 248 256 259 254 252 254 256 260 266 275 288 300 306 308 310 314 315 313 311 309 307 308 309 310 310 309 309 308 307 308 309 309 309 308 308 307 304 302 303 306 311 316 320
275 277 281 284 290 298 305 311 316 318 319 319 319 319 319 317 311 309 312 311 303 292 281 269 258 250 251 255 256 252 250 256 268 272 267 265 266 267 270 273 275 283 293 298 303 308 313 315 313 312 310 310 313 314 313 311 309 308 306 306 307 308 310 311 311 309 305 301 300 302 308 315 320 322
275 278 283 287 293 300 307 312 316 319 320 320 321 319 317 316 312 309 311 311 306 296 288 280 273 267 264 266 265 258 260 267 271 269 271 281 285 282 280 281 283 289 295 299 304 308 310 310 310 311 312 313 315 316 315 312 310 307 306 307 309 312 313 313 311 307 301 299 301 307 315 320 323 323
274 280 285 289 294 301 308 313 316 318 319 319 320 318 313 313 313 312 312 311 306 299 291 286 284 280 276 275 272 265 266 267 260 258 272 286 291 289 286 286 288 292 297 300 302 303 303 304 306 309 312 314 316 317 315 313 309 308 308 310 312 313 314 312 309 305 301 302 307 315 321 323 323 321
272 279 285 289 295 303 309 314 316 317 318 319 320 318 314 314 315 317 316 310 305 297 288 284 283 283 280 278 274 267 264 259 252 262 280 286 281 277 276 279 284 288 293 297 297 298 299 302 306 309 312 314 316 316 315 312 310 309 310 310 310 311 311 311 308 304 303 306 314 321 323 323 321 319
274 280 286 291 298 306 312 316 317 317 317 319 320 319 317 319 322 324 322 316 310 301 294 291 292 291 288 284 273 255 252 256 263 272 278 275 270 270 272 276 283 288 292 293 294 296 301 306 309 311 313 315 316 315 314 312 310 309 308 308 308 309 311 311 308 305 305 311 320 324 323 321 319 319
277 282 287 295 303 312 316 318 318 317 318 320 319 318 317 321 327 328 328 328 323 315 308 304 302 300 294 288 274 249 247 262 269 267 264 264 267 270 273 278 283 288 291 292 295 299 305 309 311 313 314 316 316 316 316 314 311 309 308 307 307 309 312 311 308 306 309 317 323 324 321 319 319 319
280 283 288 298 308 316 318 319 319 318 318 318 317 317 318 322 326 328 329 330 328 322 316 309 306 303 292 281 266 238 232 241 247 251 255 260 264 267 271 276 282 287 290 293 300 305 308 310 311 313 315 317 319 319 318 315 312 309 308 306 308 312 314 312 310 311 316 321 324 322 320 319 318 318
277 280 287 299 308 314 317 319 321 319 317 316 315 316 319 320 321 322 320 318 317 315 313 308 303 293 279 263 242 227 229 235 241 248 251 253 257 262 267 273 281 286 291 298 304 305 306 308 308 310 315 319 320 318 317 315 312 309 308 309 312 316 316 314 315 317 320 322 322 321 319 319 319 318
273 277 285 295 303 311 317 320 321 318 315 314 314 315 316 318 317 313 305 301 300 302 304 300 289 276 265 254 239 235 238 242 244 247 251 254 257 262 268 275 282 290 296 300 302 302 304 305 306 310 315 317 316 315 315 314 312 310 311 313 315 316 316 316 317 318 319 320 319 320 320 319 319 318
269 275 281 289 299 309 316 319 318 316 313 312 312 313 314 314 310 304 297 292 291 292 289 278 269 266 265 257 250 249 250 252 255 258 262 264 265 270 276 283 289 294 297 299 299 300 302 303 306 310 312 311 311 312 313 311 310 311 312 313 313 313 313 314 315 316 317 317 317 319 319 319 318 317
267 273 277 286 296 305 311 314 314 313 311 309 310 311 310 307 303 297 292 288 285 280 267 256 250 250 245 242 249 253 255 262 268 270 271 271 273 278 283 287 290 292 293 294 295 297 300 304 307 308 307 308 309 310 309 308 309 310 310 309 309 309 309 311 312 313 314 315 317 318 318 317 317 316
266 272 276 284 292 299 304 306 309 309 307 306 307 306 303 300 296 291 285 279 277 273 265 259 254 248 242 242 249 256 261 267 271 272 273 275 277 280 282 284 286 286 287 290 291 292 297 303 305 305 306 308 308 307 307 306 307 307 306 305 304 305 306 308 310 312 312 314 316 316 316 314 314 314
263 269 273 280 288 293 296 299 302 303 302 300 300 298 295 293 289 284 278 273 271 270 266 263 257 252 251 252 257 265 270 274 276 277 278 279 280 282 283 282 282 281 282 284 286 289 294 298 300 302 304 305 304 304 303 302 302 301 300 300 300 302 304 306 309 310 311 313 314 313 312 311 312 313
260 265 271 278 286 289 291 293 296 296 295 294 291 289 286 284 281 278 274 272 272 272 271 269 266 264 264 264 267 272 275 278 280 280 281 282 284 284 282 278 278 279 280 282 285 288 290 293 297 300 301 300 299 299 299 298 298 297 296 296 297 299 302 304 306 308 309 311 310 308 309 310 311 311
257 262 269 278 285 287 287 289 290 290 290 287 284 281 278 277 276 275 273 275 277 279 278 276 274 273 272 273 276 278 278 279 279 279 281 284 287 287 285 281 280 282 284 284 285 286 288 292 296 298 298 297 296 296 296 297 297 296 295 294 295 297 300 302 304 306 306 306 306 306 308 309 309 309
254 260 268 276 282 285 286 286 286 286 285 282 279 276 273 273 274 274 276 281 284 285 284 281 278 277 277 278 278 278 278 278 278 279 281 283 286 289 291 291 291 290 288 286 286 286 288 292 295 296 297 296 295 296 297 298 298 297 296 296 296 297 299 301 302 302 302 303 304 306 306 307 307 308
253 260 268 274 278 281 282 281 280 280 279 279 276 273 272 273 274 277 283 288 291 293 292 287 283 281 281 281 280 280 280 281 283 284 286 289 291 294 297 298 297 293 289 287 288 288 289 292 295 296 297 296 296 297 298 299 300 300 299 299 299 300 300 300 299 299 301 303 304 305 305 305 306 307
254 261 268 271 274 275 276 275 275 274 274 275 274 272 271 272 274 281 289 294 298 300 297 292 288 286 286 285 285 284 283 284 286 288 290 293 296 297 299 300 299 296 293 292 293 292 292 294 294 294 294 294 295 297 299 301 301 301 301 301 301 301 300 299 299 300 301 302 302 302 303 304 305 306
256 263 267 270 271 271 271 271 269 268 269 270 270 268 267 269 275 283 291 297 301 300 296 293 292 290 289 287 286 287 287 288 288 289 290 292 293 294 296 299 301 299 297 297 296 294 292 291 290 289 291 292 294 298 301 302 302 302 301 301 300 299 298 297 298 299 299 300 300 301 303 305 307 309
258 264 267 271 272 270 269 268 265 263 263 264 263 262 263 268 275 283 290 296 298 294 290 290 290 289 289 289 290 291 292 291 291 290 289 289 290 293 296 298 298 297 296 296 294 291 288 288 288 290 292 293 297 300 302 302 301 299 298 297 296 295 295 296 297 298 299 301 303 305 307 309 311 312
260 266 271 274 275 271 266 262 260 257 257 259 260 261 264 268 273 279 287 293 293 289 288 291 294 294 296 299 300 299 296 294 292 290 289 289 290 293 297 298 298 296 295 296 294 291 289 290 292 293 294 296 299 301 300 299 297 295 294 294 295 295 297 298 300 302 304 305 307 309 310 312 313 313
264 270 275 277 276 270 262 258 256 254 255 257 259 262 266 269 271 275 283 290 293 292 294 299 300 300 303 307 306 303 300 297 293 290 290 292 294 296 299 300 297 293 292 294 294 292 292 293 293 293 295 298 299 297 295 293 292 292 293 295 297 298 301 303 304 305 306 308 309 311 312 313 313 313
272 276 279 279 276 270 263 258 254 253 254 256 260 264 268 269 269 271 280 290 295 297 298 296 292 294 304 312 310 304 302 303 300 295 295 300 304 305 304 302 298 296 297 299 299 298 297 295 294 294 296 296 293 290 290 289 290 293 295 297 299 301 303 305 306 307 308 310 311 312 313 313 314 314
279 282 282 279 272 265 260 256 254 254 256 259 262 266 268 271 272 274 280 290 296 297 291 284 282 296 311 317 312 303 300 300 299 300 306 313 315 312 308 305 304 305 306 307 305 303 300 297 296 296 294 291 288 287 289 290 293 296 298 299 302 303 305 307 308 310 311 312 313 313 314 315 315 315
281 283 281 275 267 259 255 255 255 256 257 259 261 264 268 272 273 272 276 286 296 296 287 280 289 308 317 319 316 310 305 302 304 311 317 318 316 312 310 310 312 313 314 312 309 305 301 298 296 294 291 287 286 287 290 293 296 298 300 302 304 306 309 311 312 312 313 313 314 315 316 317 318 318
281 280 276 270 262 255 253 254 256 257 258 258 258 260 265 267 264 266 278 289 295 295 289 289 302 313 317 319 321 319 315 312 314 317 316 314 311 311 313 317 320 321 319 316 311 306 300 295 291 287 284 284 286 289 293 296 299 301 303 305 308 310 312 313 313 314 314 315 316 317 319 320 320 318
278 276 272 265 259 256 256 257 258 258 257 254 252 256 262 265 267 275 285 290 293 293 293 297 304 311 315 319 322 321 318 315 314 312 310 309 310 312 316 322 326 325 321 315 309 302 294 287 283 281 282 286 290 294 298 301 302 305 307 309 311 313 314 314 315 316 316 317 318 320 321 321 320 318
276 273 269 265 262 261 261 261 261 259 253 249 251 264 274 277 279 284 288 291 294 298 299 299 300 304 311 317 320 318 315 313 311 308 307 309 311 312 318 324 325 321 317 311 304 294 286 281 281 283 287 292 296 299 302 303 305 308 310 312 313 314 315 316 317 318 319 319 320 320 321 322 321 320
278 275 273 272 273 273 268 264 263 260 257 258 264 273 281 284 285 289 294 295 299 302 301 297 295 299 308 316 318 315 313 312 311 310 310 310 312 315 318 319 316 313 309 304 296 288 284 285 288 291 295 298 300 302 304 306 309 311 313 314 316 316 317 319 320 320 320 319 320 320 321 322 322 321
276 275 275 277 281 280 271 265 263 260 261 266 270 277 285 289 291 295 298 297 300 305 303 298 298 305 312 316 317 314 312 311 311 309 310 312 313 314 313 310 308 305 301 295 290 289 291 294 297 298 300 301 303 305 308 311 313 315 317 317 318 318 319 320 321 320 319 319 319 320 321 322 323 322
277 276 275 272 268 262 261 265 269 271 275 280 281 283 287 288 289 293 295 295 298 302 299 295 299 306 311 315 314 310 307 308 308 307 309 311 310 309 307 305 304 300 293 289 289 293 297 298 299 299 301 304 307 310 313 316 317 318 319 318 319 320 320 321 321 320 320 320 320 321 322 323 324 325
275 270 264 260 258 259 264 272 280 285 289 289 286 285 285 284 286 288 289 289 292 295 293 288 289 297 310 315 312 306 306 309 309 308 309 308 305 305 305 304 301 295 289 289 292 295 297 297 298 301 304 308 312 315 317 319 320 320 320 320 320 321 321 321 321 322 321 321 321 322 324 324 325 327
260 255 253 255 261 268 275 280 282 284 285 284 283 282 279 278 278 279 280 281 285 287 286 284 286 297 309 311 307 305 308 310 309 308 307 304 304 306 307 303 297 291 290 293 295 296 297 298 301 306 310 313 316 319 320 321 321 320 320 321 321 321 322 322 323 323 322 321 321 323 324 325 326 327
252 253 255 261 266 270 273 277 280 283 284 284 284 281 276 274 275 276 278 280 280 278 278 280 289 301 306 304 304 306 309 309 308 305 303 302 306 310 307 299 293 292 294 297 297 297 298 301 306 311 314 316 319 320 320 320 320 320 320 321 322 322 322 322 323 323 323 323 322 324 325 325 326 327
257 258 261 265 269 271 275 279 282 285 286 286 287 285 281 280 279 276 275 275 274 273 276 284 293 300 302 300 300 303 304 304 302 300 300 305 311 311 305 296 294 298 301 302 300 299 302 307 310 313 316 317 319 319 319 320 320 321 322 322 323 323 323 323 324 325 325 324 324 325 326 326 327 328
261 263 266 270 273 275 277 279 282 285 287 288 287 285 282 281 280 276 274 274 273 274 278 283 289 294 296 296 297 299 301 300 299 300 305 310 313 310 304 299 302 306 306 303 301 302 306 310 313 315 317 318 319 319 320 321 321 321 322 323 323 324 325 325 326 326 326 326 325 326 327 327 327 329
263 266 269 271 273 275 276 279 281 284 285 284 281 279 277 279 282 281 278 277 276 275 277 281 287 292 295 297 299 300 300 299 299 304 309 313 313 310 306 307 309 308 305 302 303 307 311 313 314 316 318 319 320 320 321 321 321 322 322 323 324 325 325 325 326 326 327 326 325 326 326 326 327 329
267 270 272 273 274 275 277 278 278 277 277 275 273 273 274 278 281 282 280 280 280 281 284 286 289 291 292 294 295 296 297 299 303 309 313 314 312 309 308 308 308 305 303 304 307 311 313 314 317 318 319 320 321 321 321 322 322 323 323 324 324 324 325 325 325 326 326 324 323 323 324 325 325 328
269 272 274 276 276 274 274 273 270 269 269 270 271 272 274 277 282 288 291 292 293 294 290 286 285 287 290 292 294 296 299 303 308 311 313 311 307 306 305 305 303 302 303 307 310 312 314 316 318 319 320 321 322 323 323 324 323 323 323 324 325 325 326 326 325 325 325 323 321 321 323 324 324 326